Powrót do katalogu

STARLINK-2566

AktywnyŁącznośćVLEO
NORAD 48287·PAYLOAD·🇺🇸 United States

Wystrzelony Apr 29, 2021 z Cape Canaveral Space Force Station

Loading…

Następne Przeloty (najbliższe 24 godziny)

TLE

ŚwieżeSource: CelesTrak SupGP

Epoka: Sep 15, 2026, 01:09 UTC

1 48287C 21036M   26258.04840278  .00029575  00000+0  95039-3 0  2581
2 48287  53.1587 276.5770 0001295  89.4091 257.1222 15.31709265    13

Śledź STARLINK-2566 w czasie rzeczywistym z AllMySat

Download on the App Store